Showing default

FLOCK 4G 13, 62621

Orbit data source: Space-Track

FLOCK 4G 13, 62621 is a payload satellite owned by Planet (US) in SSO that was launched on Tue, 14 Jan 2025 UTC via an FALCON 9 launch vehicle from the Air Force Western Test Range (AFWTR). Payload-class satellites include a variety of spacecraft equipped with specific instruments for various scientific and technological missions. These include communications satellites like Starlink; space stations such as the ISS; scientific satellites like the Hubble; Earth observation satellites from companies like Planet Labs, Umbra, and HawkEye 360; GPS; miniature CubeSats for education and research; and military/defense satellites.

Loading next visibility...
Identifier
62621, 2025-009N
Orbit
SSO
Country
Flag of USUS
Related business
Manufacturer
Planet
Mission
Partially operational Commercial Imaging
Bus & Motor
CUBESAT 3U, Unknown motor
Mass
5.7 kg wet, 5.7 kg dry
Launch date (UTC)
2025-01-14 (1 year ago)
Launch vehicle
FALCON 9
Launch site
Air Force Western Test Range (AFWTR)
Object type
Payload
Rocket body
Debris
Shape & HBR
Box + 2 Pan, 1.0 m
Radar Cross Section
0.072 m², Medium (>0.1 m² and < 1m²)

Expand to show TLE details & history
Last TLE update: 8 hours ago

TLE from 8 hours ago
0 FLOCK 4G 13
1 62621U 25009N   26122.19580369  .00072302  00000-0  18626-2 0  9996
2 62621  97.3978 204.8462 0005164 134.1969 225.9701 15.38934619 71910
Epoch: 2026-05-02T04:41Z
TLE epoch observation values (Epoch: 2026-05-02T04:41:57.438Z)
Latitude
-0.00008°
Longitude
-85.7603°
Altitude
454.827 km
Speed
7.638 km/s
True Right ascension
13h 39m 23s
True Declination
0° 00' 00"
Sunlit
Object was in full shadow at epoch
Visualization orbit readout
Latitude
Unknown
Longitude
Unknown
Altitude
Unknown
Speed
Unknown
Apparent Right ascension
Unknown
Apparent Declination
Unknown
Sunlit
N/A
Visualization observer readout
Local Sidereal Time
19:55:40
Azimuth
Unknown
Elevation
Unknown
Doppler factor
Unknown
Orbital elements
Apogee altitude
449.723 km
Perigee altitude
442.675 km
Semi-major axis
6,824.336 km
Eccentricity
0.00052
Inclination
97.3978°
RAAN
204.8462°
Arg. of periapsis
134.1969°
True anomaly
225.92757°
Mean anomaly
225.9701°
Eccentric anomaly
225.94883°
Mean motion
3.84993 °/min
Orbital period
93.51 mins
BSTAR
0.0018626
Loading maneuver chart data...
Computing Atmospheric mass density...
Loading historical data...
Loading historical data...
Loading historical data...
Loading historical data...
Loading historical data...
Loading historical data...
Loading historical data...

Documentation

Showing up to 5 results
|